Location: ActonStarParty
(42.4766°N, 71.4538°W)
Time: 19:13:15
(UTC-05:00)

Amateur Radio Satellites - All Passes

Search period start: 19 December 2014 18:43
Search period end: 20 December 2014 18:43
Location: ActonStarParty, 42.4766°N, 71.4538°W

Satellite Date Start Highest point End Downlink Frequencies (MHz)
Time Altitude Azimuth
SEEDS 19 Dec 18:43:36 18:45:41 14° 63° (ENE) 18:47:47 437.485
CUTE 1.7 + AOD 2 19 Dec 18:44:52 18:47:29 16° 64° (ENE) 18:50:07 437.475
CUSAT 1 19 Dec 18:48:19 18:54:20 25° 67° (ENE) 19:00:54 437.405
DOVE 4 19 Dec 19:05:06 19:07:21 14° 63° (ENE) 19:09:36 437.250
Oscar 11 19 Dec 19:18:06 19:19:57 13° 62° (ENE) 19:21:49 145.826/435.025
UKube-1 19 Dec 19:26:05 19:27:48 12° 61° (ENE) 19:29:31 .
CUBEBUG 2 19 Dec 19:31:32 19:31:58 10° 60° (ENE) 19:32:24 437.445
DANDE 19 Dec 19:33:46 19:40:49 43° 73° (ENE) 19:48:51 436.750
HO-68 19 Dec 19:36:57 19:44:07 79° 71° (ENE) 19:51:19 435.675
ISS 19 Dec 19:36:59 19:40:14 62° 31° (NNE) 19:43:28 145.825
BRITE-PL 19 Dec 19:37:56 19:42:04 62° 74° (ENE) 19:46:10 437.365/2234.400
CINEMA 3 19 Dec 19:37:58 19:40:57 19° 65° (ENE) 19:43:58 145.822/145.860
AAUSAT CUBESAT 2 19 Dec 19:38:35 19:42:27 37° 71° (ENE) 19:46:22 437.432
STRAND 1 19 Dec 19:41:59 19:46:29 32° 293° (WNW) 19:50:58 437.568
ZACube-1 19 Dec 19:46:21 19:47:26 11° 60° (ENE) 19:48:31 437.345
CANX-2 19 Dec 19:47:42 19:51:58 82° 76° (ENE) 19:56:17 2200.000
CUBESAT XI-V 19 Dec 20:00:18 20:03:03 16° 297° (WNW) 20:05:49 437.345
UWE-3 19 Dec 20:08:54 20:12:08 22° 66° (ENE) 20:15:26 435.000/436.395/437.385
GOMX 1 19 Dec 20:10:07 20:14:17 82° 257° (WSW) 20:18:28 467.674
FUNcube-1 19 Dec 20:11:12 20:14:15 20° 65° (ENE) 20:17:20 145.935
COMPASS 1 19 Dec 20:12:43 20:16:56 80° 258° (WSW) 20:21:12 437.405
SEEDS 19 Dec 20:16:49 20:21:00 60° 259° (W) 20:25:15 437.485
RS-15 19 Dec 20:16:54 20:28:11 74° 53° (NE) 20:39:57 29.354- 29.394
CUTE 1.7 + AOD 2 19 Dec 20:18:53 20:23:01 49° 261° (W) 20:27:12 437.475
AISAT 19 Dec 20:24:45 20:27:44 18° 64° (ENE) 20:30:43 437.250
DX 1 19 Dec 20:26:54 20:31:07 53° 72° (ENE) 20:35:21 434.975-435.025
SO-50 19 Dec 20:28:41 20:32:48 35° 115° (ESE) 20:37:02 436.795
CUSAT 1 19 Dec 20:30:22 20:38:00 80° 263° (W) 20:46:31 437.405
DELFI C3 19 Dec 20:35:54 20:39:59 68° 75° (ENE) 20:44:06 145.870
50 SAT 19 Dec 20:39:27 20:42:15 19° 66° (ENE) 20:45:04 437.505
DOVE 4 19 Dec 20:40:41 20:44:42 50° 261° (W) 20:48:47 437.250
Oscar 11 19 Dec 20:51:15 20:55:33 68° 259° (WSW) 20:59:55 145.826/435.025
HUMSAT D 19 Dec 20:52:17 20:55:57 32° 70° (ENE) 20:59:40 437.325/437.525
BEESAT 3 19 Dec 20:56:54 21:00:17 23° 45° (NE) 21:03:38 437.485
AIST 2 19 Dec 20:58:18 21:00:30 14° 37° (NE) 21:02:42 435.215
UKube-1 19 Dec 20:59:03 21:03:22 71° 257° (WSW) 21:07:43 .
CUBEBUG 2 19 Dec 21:03:49 21:07:59 80° 258° (WSW) 21:12:17 437.445
PCSat 19 Dec 21:06:55 21:10:28 17° 40° (NE) 21:14:01 145.827
TIGRISAT 19 Dec 21:10:09 21:11:42 11° 89° (E) 21:13:16 435.000
CINEMA 3 19 Dec 21:14:04 21:17:54 36° 263° (W) 21:21:51 145.822/145.860
ISS 19 Dec 21:14:22 21:16:30 16° 228° (SW) 21:18:38 145.825
AAUSAT CUBESAT 2 19 Dec 21:15:14 21:18:15 19° 267° (W) 21:21:17 437.432
ESTCUBE 1 19 Dec 21:16:28 21:20:09 25° 67° (ENE) 21:23:50 437.505/2401.250
VELOX 1 19 Dec 21:17:00 21:21:21 60° 73° (ENE) 21:25:43 145.980
DANDE 19 Dec 21:17:10 21:24:20 47° 268° (W) 21:32:26 436.750
ZACube-1 19 Dec 21:19:00 21:23:09 75° 258° (WSW) 21:27:26 437.345
BRITE-PL 19 Dec 21:20:15 21:21:02 10° 271° (W) 21:21:49 437.365/2234.400
HO-68 19 Dec 21:27:38 21:32:32 20° 269° (W) 21:37:29 435.675
BEESAT 2 19 Dec 21:35:25 21:39:28 45° 52° (NE) 21:43:28 435.950
UNISAT 6 19 Dec 21:36:55 21:40:39 23° 94° (E) 21:44:23 437.425
UWE-3 19 Dec 21:44:46 21:48:30 32° 264° (W) 21:52:21 435.000/436.395/437.385
FUNcube-1 19 Dec 21:46:29 21:50:20 37° 263° (W) 21:54:18 145.935
TISAT 1 19 Dec 21:48:17 21:50:02 12° 62° (ENE) 21:51:48 437.305
SPROUT 19 Dec 21:48:31 21:50:00 12° 61° (ENE) 21:51:30 437.525
DUCHIFAT 1 19 Dec 21:50:16 21:53:13 18° 93° (E) 21:56:09 145.980
BUGSAT 1 19 Dec 21:54:39 21:57:05 15° 92° (E) 21:59:30 437.445
AISAT 19 Dec 21:59:46 22:04:01 46° 261° (W) 22:08:17 437.250
QB50P2 19 Dec 22:02:34 22:06:08 25° 95° (E) 22:09:41 145.880/145.840
DX 1 19 Dec 22:05:18 22:07:40 14° 268° (W) 22:10:03 434.975-435.025
ANTELSAT 19 Dec 22:08:09 22:12:43 47° 99° (E) 22:17:16 437.575/2403.000
CUBEBUG 1 19 Dec 22:09:14 22:13:37 82° 76° (ENE) 22:17:59 437.445
SO-50 19 Dec 22:09:19 22:13:22 30° 314° (NW) 22:17:33 436.795
POLYITAN 1 19 Dec 22:10:50 22:14:39 31° 97° (E) 22:18:29 437.675
50 SAT 19 Dec 22:13:30 22:17:13 36° 262° (W) 22:20:59 437.505
NANOSAT C BR1 19 Dec 22:13:57 22:17:48 33° 97° (E) 22:21:39 145.865
CUSAT 1 19 Dec 22:15:37 22:20:13 17° 278° (W) 22:25:05 437.405
QB50P1 19 Dec 22:27:59 22:32:07 47° 99° (E) 22:36:14 145.935-145.965
HUMSAT D 19 Dec 22:28:37 22:31:48 21° 266° (W) 22:35:02 437.325/437.525
RS-15 19 Dec 22:30:09 22:39:40 33° 255° (WSW) 22:49:35 29.354- 29.394
BEESAT 3 19 Dec 22:34:42 22:38:37 41° 243° (WSW) 22:42:29 437.485
AIST 2 19 Dec 22:35:29 22:39:49 85° 57° (ENE) 22:44:03 435.215
TIGRISAT 19 Dec 22:44:15 22:48:57 76° 285° (WNW) 22:53:40 435.000
YUBILEINY 19 Dec 22:48:12 22:56:03 39° 86° (E) 23:03:52 435.215
PCSat 19 Dec 22:49:13 22:54:41 88° 61° (ENE) 23:00:06 145.827
ESTCUBE 1 19 Dec 22:52:45 22:56:52 33° 263° (W) 23:01:00 437.505/2401.250
VELOX 1 19 Dec 22:56:15 22:58:19 13° 269° (W) 23:00:23 145.980
POPSAT HIP 1 19 Dec 22:56:28 23:00:45 82° 284° (WNW) 23:05:01 437.405
UNISAT 6 19 Dec 23:13:11 23:17:32 39° 290° (WNW) 23:21:54 437.425
BEESAT 2 19 Dec 23:14:28 23:17:24 19° 249° (WSW) 23:20:18 435.950
TISAT 1 19 Dec 23:21:10 23:25:20 64° 259° (WSW) 23:29:31 437.305
SPROUT 19 Dec 23:21:15 23:25:30 72° 258° (WSW) 23:29:48 437.525
DUCHIFAT 1 19 Dec 23:25:15 23:29:14 40° 289° (WNW) 23:33:12 145.980
O/OREOS (USA 219) 19 Dec 23:28:08 23:30:52 16° 100° (E) 23:33:36 437.305
BUGSAT 1 19 Dec 23:28:57 23:32:47 42° 288° (WNW) 23:36:38 437.445
QB50P2 19 Dec 23:38:20 23:42:01 29° 291° (WNW) 23:45:42 145.880/145.840
SWISSCUBE 19 Dec 23:41:23 23:45:43 35° 69° (ENE) 23:50:04 437.505
ITUPSAT 1 19 Dec 23:41:34 23:45:49 32° 68° (ENE) 23:50:05 437.325
ANTELSAT 19 Dec 23:45:46 23:49:09 20° 295° (WNW) 23:52:33 437.575/2403.000
POLYITAN 1 19 Dec 23:47:01 23:50:27 24° 293° (WNW) 23:53:55 437.675
NANOSAT C BR1 19 Dec 23:50:11 23:53:30 23° 293° (WNW) 23:56:49 145.865
AUBIESAT-1 19 Dec 23:53:57 23:58:09 31° 62° (ENE) 00:02:25 437.475
QB50P1 20 Dec 00:04:57 00:07:38 17° 296° (WNW) 00:10:19 145.935-145.965
BEESAT 20 Dec 00:06:10 00:10:51 57° 72° (ENE) 00:15:34 436.000
M-CUBED/EXP-1 PRIME 20 Dec 00:18:14 00:22:57 56° 67° (ENE) 00:27:46 437.505
Oscar 19 20 Dec 00:33:55 00:38:20 27° 95° (E) 00:42:44 437.125/150
PCSat 20 Dec 00:35:05 00:37:16 13° 258° (WSW) 00:39:27 145.827
YUBILEINY 20 Dec 00:44:19 00:52:39 47° 286° (WNW) 01:01:00 435.215
ITAMSAT 1 20 Dec 00:49:08 00:51:39 14° 90° (E) 00:54:10 435.822/435.867
O/OREOS (USA 219) 20 Dec 01:05:31 01:09:50 49° 297° (WNW) 01:14:11 437.305
ITUPSAT 1 20 Dec 01:19:33 01:23:41 28° 264° (W) 01:27:51 437.325
SWISSCUBE 20 Dec 01:19:38 01:23:37 26° 265° (W) 01:27:38 437.505
STARS 20 Dec 01:22:38 01:26:50 48° 72° (ENE) 01:31:03 437.465
KKS-1 20 Dec 01:24:14 01:28:38 75° 75° (ENE) 01:33:05 437.445
AUBIESAT-1 20 Dec 01:28:36 01:32:58 34° 259° (W) 01:37:26 437.475
BEESAT 20 Dec 01:46:08 01:49:03 16° 269° (W) 01:51:58 436.000
M-CUBED/EXP-1 PRIME 20 Dec 01:54:53 01:58:14 19° 264° (W) 02:01:38 437.505
Oscar 19 20 Dec 02:12:57 02:17:44 38° 292° (WNW) 02:22:30 437.125/150
VERMONT LUNAR 20 Dec 02:14:19 02:16:10 14° 149° (SSE) 02:18:02 437.305
Gurwin Techsat 1B 20 Dec 02:16:44 02:21:58 58° 101° (E) 02:27:11 435.225
AIST 1 20 Dec 02:22:29 02:25:36 19° 71° (ENE) 02:28:42
PHONESAT 2.4 20 Dec 02:24:59 02:26:10 11° 147° (SSE) 02:27:21 2401.200-2431.200
ITAMSAT 1 20 Dec 02:26:31 02:31:41 74° 286° (WNW) 02:36:50 435.822/435.867
MOZHAYETS 4 20 Dec 02:30:12 02:32:24 13° 61° (ENE) 02:34:36
HORYU 2 20 Dec 02:45:32 02:49:50 42° 99° (E) 02:54:06 437.375
AO-7 20 Dec 02:57:21 03:04:13 27° 94° (E) 03:11:01 29.400- 29.500
STARS 20 Dec 03:00:52 03:03:34 16° 268° (W) 03:06:18 437.465
KKS-1 20 Dec 03:05:10 03:05:48 10° 271° (W) 03:06:25 437.445
JAS-2 20 Dec 03:42:01 03:45:24 16° 88° (E) 03:48:38 435.910
VERMONT LUNAR 20 Dec 03:50:36 03:53:58 42° 164° (SSE) 03:57:19 437.305
Gurwin Techsat 1B 20 Dec 03:57:43 04:01:29 20° 298° (WNW) 04:05:15 435.225
AIST 1 20 Dec 03:59:29 04:03:23 35° 269° (W) 04:07:14
PHONESAT 2.4 20 Dec 04:00:52 04:04:15 37° 162° (SSE) 04:07:38 2401.200-2431.200
MOZHAYETS 4 20 Dec 04:04:23 04:09:01 73° 258° (WSW) 04:13:42
ITAMSAT 1 20 Dec 04:09:27 04:10:16 10° 304° (NW) 04:11:04 435.822/435.867
HORYU 2 20 Dec 04:22:54 04:26:12 20° 295° (WNW) 04:29:31 437.375
GONETS M04 20 Dec 04:42:27 04:50:42 47° 88° (E) 04:58:58
AO-7 20 Dec 04:49:16 04:57:34 69° 293° (WNW) 05:05:50 29.400- 29.500
SO-50 20 Dec 04:59:09 05:03:48 42° 49° (NE) 05:08:28 436.795
PRISM 20 Dec 05:04:23 05:08:37 81° 75° (ENE) 05:12:52 437.425
Cubesat XI-IV 20 Dec 05:16:41 05:21:03 25° 94° (E) 05:25:23 437.490
STRAND 1 20 Dec 05:19:14 05:24:08 49° 70° (ENE) 05:29:02 437.568
CUBESAT XI-V 20 Dec 05:25:30 05:30:06 60° 74° (ENE) 05:34:42 437.345
JAS-2 20 Dec 05:25:31 05:31:11 63° 288° (WNW) 05:36:21 435.910
VERMONT LUNAR 20 Dec 05:28:36 05:32:06 64° 181° (S) 05:35:37 437.305
PHONESAT 2.4 20 Dec 05:39:08 05:42:44 65° 178° (S) 05:46:20 2401.200-2431.200
CUTE-I 20 Dec 05:49:37 05:54:46 49° 100° (E) 05:59:54 437.470
GONETS M04 20 Dec 06:39:25 06:47:35 41° 288° (WNW) 06:55:49
SO-50 20 Dec 06:40:04 06:44:11 27° 247° (WSW) 06:48:17 436.795
AO-7 20 Dec 06:44:00 06:48:51 17° 314° (NW) 06:53:43 29.400- 29.500
Cubesat XI-IV 20 Dec 06:56:17 07:01:17 42° 291° (WNW) 07:06:15 437.490
STRAND 1 20 Dec 06:59:47 07:03:34 21° 267° (W) 07:07:22 437.568
CUBESAT XI-V 20 Dec 07:05:25 07:07:55 14° 270° (W) 07:10:25 437.345
HO-68 20 Dec 07:06:52 07:09:53 13° 87° (E) 07:12:54 435.675
VERMONT LUNAR 20 Dec 07:06:56 07:10:13 37° 198° (SSW) 07:13:30 437.305
PHONESAT 2.4 20 Dec 07:17:46 07:21:14 43° 195° (SSW) 07:24:42 2401.200-2431.200
CUTE-I 20 Dec 07:30:25 07:34:30 23° 297° (WNW) 07:38:34 437.470
CANX-2 20 Dec 07:34:20 07:36:35 14° 90° (E) 07:38:50 2200.000
BRITE-PL 20 Dec 07:41:41 07:45:10 20° 94° (E) 07:48:49 437.365/2234.400
COMPASS 1 20 Dec 07:57:21 08:00:03 16° 92° (E) 08:02:44 437.405
SEEDS 20 Dec 08:01:38 08:04:58 22° 94° (E) 08:08:17 437.485
CUTE 1.7 + AOD 2 20 Dec 08:04:05 08:07:46 27° 95° (E) 08:11:25 437.475
GOMX 1 20 Dec 08:10:41 08:14:48 28° 96° (E) 08:19:08 467.674
TIGRISAT 20 Dec 08:10:47 08:12:06 11° 60° (ENE) 08:13:25 435.000
MaSat-1 20 Dec 08:31:45 08:34:04 68° 115° (ESE) 08:36:17 437.345
UNISAT 6 20 Dec 08:37:20 08:40:39 21° 65° (ENE) 08:44:02 437.425
DOVE 4 20 Dec 08:38:19 08:42:47 39° 98° (E) 08:47:30 437.250
Oscar 11 20 Dec 08:38:51 08:42:10 21° 93° (E) 08:45:27 145.826/435.025
DUCHIFAT 1 20 Dec 08:44:34 08:47:07 16° 64° (ENE) 08:49:40 145.980
BUGSAT 1 20 Dec 08:46:45 08:48:40 13° 63° (ENE) 08:50:34 437.445
VERMONT LUNAR 20 Dec 08:46:52 08:47:56 11° 213° (SSW) 08:49:01 437.305
UKube-1 20 Dec 08:47:18 08:50:18 18° 93° (E) 08:53:17 .
DANDE 20 Dec 08:51:09 08:54:06 26° 87° (E) 08:57:49 436.750
HO-68 20 Dec 08:51:30 08:58:41 78° 105° (ESE) 09:05:49 435.675
CUBEBUG 2 20 Dec 08:54:50 08:58:26 22° 94° (E) 09:02:04 437.445
AAUSAT CUBESAT 2 20 Dec 08:56:46 09:01:01 66° 101° (E) 09:05:12 437.432
QB50P2 20 Dec 08:56:56 09:00:10 22° 66° (ENE) 09:03:24 145.880/145.840
PHONESAT 2.4 20 Dec 08:57:22 08:59:24 14° 211° (SSW) 09:01:26 2401.200-2431.200
YUBILEINY 20 Dec 08:57:44 09:03:41 20° 61° (ENE) 09:09:35 435.215
POLYITAN 1 20 Dec 09:05:15 09:08:45 26° 68° (ENE) 09:12:17 437.675
CINEMA 3 20 Dec 09:07:27 09:12:02 47° 99° (E) 09:16:46 145.822/145.860
ZACube-1 20 Dec 09:07:44 09:11:12 21° 93° (E) 09:14:41 437.345
NANOSAT C BR1 20 Dec 09:07:51 09:11:25 28° 68° (ENE) 09:15:00 145.865
ANTELSAT 20 Dec 09:08:12 09:12:20 43° 71° (ENE) 09:16:36 437.575/2403.000
CANX-2 20 Dec 09:08:37 09:12:51 54° 287° (WNW) 09:17:03 2200.000
VELOX 1 20 Dec 09:09:59 09:11:00 11° 89° (E) 09:12:01 145.980
BRITE-PL 20 Dec 09:19:23 09:23:49 45° 288° (WNW) 09:28:36 437.365/2234.400
QB50P1 20 Dec 09:21:46 09:25:40 39° 71° (ENE) 09:29:36 145.935-145.965
COMPASS 1 20 Dec 09:31:56 09:36:00 44° 288° (WNW) 09:40:01 437.405
UWE-3 20 Dec 09:33:26 09:37:52 46° 99° (E) 09:42:21 435.000/436.395/437.385
FUNcube-1 20 Dec 09:34:03 09:38:18 39° 98° (E) 09:42:34 145.935
O/OREOS (USA 219) 20 Dec 09:35:34 09:39:44 36° 61° (ENE) 09:43:55 437.305
SEEDS 20 Dec 09:36:59 09:40:52 34° 290° (WNW) 09:44:43 437.485
CUTE 1.7 + AOD 2 20 Dec 09:39:57 09:43:38 28° 291° (WNW) 09:47:18 437.475
TIGRISAT 20 Dec 09:43:49 09:48:09 79° 257° (WSW) 09:52:38 435.000
CUSAT 1 20 Dec 09:43:52 09:47:25 57° 285° (WNW) 09:52:14 437.405
GOMX 1 20 Dec 09:48:41 09:52:54 33° 290° (WNW) 09:57:22 467.674
POPSAT HIP 1 20 Dec 09:50:04 09:54:16 81° 76° (ENE) 09:58:30 437.405
AISAT 20 Dec 09:50:25 09:54:22 31° 97° (E) 09:58:18 437.250
DX 1 20 Dec 09:50:44 09:55:06 88° 284° (WNW) 09:59:27 434.975-435.025
DELFI C3 20 Dec 09:51:10 09:55:17 73° 285° (WNW) 09:59:23 145.870
50 SAT 20 Dec 09:53:12 09:56:48 28° 96° (E) 10:00:23 437.505
CUBEBUG 1 20 Dec 09:59:19 10:01:39 14° 91° (E) 10:03:59 437.445
HUMSAT D 20 Dec 10:11:21 10:15:38 57° 100° (E) 10:19:55 437.325/437.525
UNISAT 6 20 Dec 10:13:09 10:17:12 37° 263° (W) 10:21:22 437.425
Oscar 11 20 Dec 10:14:25 10:18:26 36° 290° (WNW) 10:22:25 145.826/435.025
DOVE 4 20 Dec 10:16:34 10:20:22 24° 293° (WNW) 10:24:19 437.250
DUCHIFAT 1 20 Dec 10:18:32 10:22:35 48° 260° (W) 10:26:41 145.980
BUGSAT 1 20 Dec 10:19:41 10:23:43 56° 259° (W) 10:27:43 437.445
UKube-1 20 Dec 10:22:34 10:26:39 41° 289° (WNW) 10:30:42 .
CUBEBUG 2 20 Dec 10:30:55 10:35:14 40° 289° (WNW) 10:39:37 437.445
QB50P2 20 Dec 10:32:04 10:35:53 33° 263° (W) 10:39:44 145.880/145.840
AAUSAT CUBESAT 2 20 Dec 10:34:22 10:36:07 12° 298° (WNW) 10:37:53 437.432
DANDE 20 Dec 10:34:51 10:37:40 20° 297° (WNW) 10:41:06 436.750
HO-68 20 Dec 10:40:24 10:45:39 23° 304° (NW) 10:50:53 435.675
POLYITAN 1 20 Dec 10:41:03 10:44:38 27° 264° (W) 10:48:14 437.675
RS-15 20 Dec 10:41:56 10:51:53 43° 109° (ESE) 11:01:48 29.354- 29.394
ZACube-1 20 Dec 10:43:28 10:47:41 39° 289° (WNW) 10:51:56 437.345
VELOX 1 20 Dec 10:43:39 10:48:04 72° 286° (WNW) 10:52:28 145.980
NANOSAT C BR1 20 Dec 10:43:44 10:47:15 26° 265° (W) 10:50:47 145.865
ESTCUBE 1 20 Dec 10:44:37 10:48:58 47° 99° (E) 10:53:17 437.505/2401.250
CINEMA 3 20 Dec 10:45:28 10:48:56 21° 294° (WNW) 10:52:28 145.822/145.860
ANTELSAT 20 Dec 10:46:25 10:49:22 18° 268° (W) 10:52:24 437.575/2403.000
YUBILEINY 20 Dec 10:53:03 11:01:47 89° 83° (E) 11:10:30 435.215
QB50P1 20 Dec 10:58:48 11:01:43 18° 267° (W) 11:04:39 145.935-145.965
TISAT 1 20 Dec 11:06:27 11:09:28 19° 93° (E) 11:12:29 437.305
SPROUT 20 Dec 11:08:23 11:11:27 19° 93° (E) 11:14:31 437.525
UWE-3 20 Dec 11:10:49 11:14:05 20° 295° (WNW) 11:17:23 435.000/436.395/437.385
FUNcube-1 20 Dec 11:10:56 11:14:24 22° 294° (WNW) 11:17:54 145.935
O/OREOS (USA 219) 20 Dec 11:15:23 11:18:56 23° 258° (WSW) 11:22:29 437.305
AISAT 20 Dec 11:27:13 11:30:52 26° 293° (WNW) 11:34:31 437.250
50 SAT 20 Dec 11:28:31 11:31:55 25° 292° (WNW) 11:35:19 437.505
CUBEBUG 1 20 Dec 11:34:07 11:38:20 52° 287° (WNW) 11:42:33 437.445
HUMSAT D 20 Dec 11:48:36 11:50:58 15° 297° (WNW) 11:53:20 437.325/437.525
Oscar 19 20 Dec 11:51:18 11:56:06 42° 69° (ENE) 12:00:58 437.125/150
Gurwin Techsat 1B 20 Dec 12:01:59 12:04:34 14° 58° (ENE) 12:07:09 435.225
ITAMSAT 1 20 Dec 12:07:11 12:11:15 24° 64° (ENE) 12:15:19 435.822/435.867
BEESAT 20 Dec 12:07:39 12:10:04 14° 90° (E) 12:12:28 436.000
ISS 20 Dec 12:19:55 12:21:34 13° 131° (SE) 12:23:14 145.825
ESTCUBE 1 20 Dec 12:22:26 12:25:29 18° 296° (WNW) 12:28:31 437.505/2401.250
BEESAT 3 20 Dec 12:29:56 12:33:33 31° 115° (ESE) 12:37:14 437.485
AIST 2 20 Dec 12:36:08 12:38:41 16° 110° (ESE) 12:41:15 435.215
TISAT 1 20 Dec 12:41:31 12:45:25 37° 289° (WNW) 12:49:20 437.305
SPROUT 20 Dec 12:43:41 12:47:41 39° 289° (WNW) 12:51:41 437.525
YUBILEINY 20 Dec 12:51:55 12:57:19 19° 283° (WNW) 13:02:44 435.215
RS-15 20 Dec 12:53:05 13:03:49 59° 312° (NW) 13:14:42 29.354- 29.394
BEESAT 2 20 Dec 13:08:56 13:13:01 73° 121° (ESE) 13:17:12 435.950
AUBIESAT-1 20 Dec 13:11:45 13:14:46 18° 96° (E) 13:17:36 437.475
KKS-1 20 Dec 13:16:30 13:18:52 14° 91° (E) 13:21:12 437.445
SWISSCUBE 20 Dec 13:18:29 13:23:16 78° 103° (ESE) 13:28:01 437.505
ITUPSAT 1 20 Dec 13:18:49 13:23:36 71° 102° (ESE) 13:28:20 437.325
PCSat 20 Dec 13:31:16 13:36:39 73° 117° (ESE) 13:42:04 145.827
Oscar 19 20 Dec 13:31:28 13:35:36 24° 266° (W) 13:39:45 437.125/150
M-CUBED/EXP-1 PRIME 20 Dec 13:36:23 13:40:29 38° 102° (ESE) 13:44:14 437.505
Gurwin Techsat 1B 20 Dec 13:38:28 13:43:47 87° 256° (WSW) 13:49:08 435.225
BEESAT 20 Dec 13:43:37 13:48:21 65° 287° (WNW) 13:53:03 436.000
HORYU 2 20 Dec 13:44:42 13:48:54 42° 71° (ENE) 13:53:09 437.375
ITAMSAT 1 20 Dec 13:45:30 13:50:27 45° 261° (W) 13:55:26 435.822/435.867
ISS 20 Dec 13:54:27 13:57:45 77° 328° (NNW) 14:01:03 145.825
JAS-2 20 Dec 13:56:17 13:59:17 13° 54° (NE) 14:02:10 435.910
AO-7 20 Dec 13:56:53 14:04:28 41° 60° (ENE) 14:12:05 29.400- 29.500
BEESAT 3 20 Dec 14:08:08 14:11:43 28° 313° (NW) 14:15:22 437.485
AIST 2 20 Dec 14:12:41 14:16:51 55° 307° (NW) 14:21:05 435.215
AUBIESAT-1 20 Dec 14:45:51 14:49:58 40° 295° (WNW) 14:53:43 437.475
STARS 20 Dec 14:48:11 14:52:39 89° 103° (ESE) 14:57:06 437.465
BEESAT 2 20 Dec 14:49:12 14:51:46 16° 320° (NW) 14:54:22 435.950
KKS-1 20 Dec 14:51:28 14:55:51 57° 287° (WNW) 15:00:14 437.445
GONETS M04 20 Dec 14:52:15 14:58:58 24° 64° (ENE) 15:05:36
AIST 1 20 Dec 14:55:00 14:56:25 11° 83° (E) 14:57:49
SWISSCUBE 20 Dec 14:58:20 15:00:28 13° 300° (WNW) 15:02:37 437.505
ITUPSAT 1 20 Dec 14:58:25 15:00:54 14° 300° (WNW) 15:03:22 437.325
RS-15 20 Dec 15:10:33 15:19:10 25° 343° (NNW) 15:27:59 29.354- 29.394
M-CUBED/EXP-1 PRIME 20 Dec 15:11:52 15:15:13 21° 301° (WNW) 15:18:21 437.505
PCSat 20 Dec 15:16:37 15:20:38 21° 317° (NW) 15:24:41 145.827
HORYU 2 20 Dec 15:22:36 15:25:45 19° 267° (W) 15:28:57 437.375
Gurwin Techsat 1B 20 Dec 15:23:33 15:24:29 10° 273° (W) 15:25:25 435.225
ISS 20 Dec 15:32:09 15:34:44 21° 346° (NNW) 15:37:19 145.825
JAS-2 20 Dec 15:35:40 15:43:11 63° 72° (ENE) 15:50:03 435.910
CUTE-I 20 Dec 15:36:03 15:38:15 13° 57° (ENE) 15:40:27 437.470
AO-7 20 Dec 15:49:08 15:57:05 49° 259° (W) 16:05:08 29.400- 29.500
AIST 2 20 Dec 15:56:07 15:56:26 10° 327° (NNW) 15:56:46 435.215
MOZHAYETS 4 20 Dec 15:59:37 16:03:29 26° 94° (E) 16:07:19
STARS 20 Dec 16:28:03 16:28:25 10° 301° (WNW) 16:28:47 437.465
AIST 1 20 Dec 16:29:08 16:33:29 63° 280° (W) 16:37:50
Cubesat XI-IV 20 Dec 16:39:12 16:44:15 45° 69° (ENE) 16:49:17 437.490
GONETS M04 20 Dec 16:48:02 16:56:48 79° 265° (W) 17:05:28
PRISM 20 Dec 16:49:41 16:50:38 11° 90° (E) 16:51:34 437.425
ISS 20 Dec 17:09:55 17:12:11 17° 6° (N) 17:14:28 145.825
CUTE-I 20 Dec 17:12:10 17:17:30 86° 75° (ENE) 17:22:51 437.470
JAS-2 20 Dec 17:22:14 17:28:29 27° 267° (W) 17:34:21 435.910
CUBESAT XI-V 20 Dec 17:23:19 17:25:48 14° 90° (E) 17:28:15 437.345
RS-15 20 Dec 17:27:47 17:36:38 26° 19° (NNE) 17:45:43 29.354- 29.394
STRAND 1 20 Dec 17:30:30 17:33:26 15° 91° (E) 17:36:21 437.568
MOZHAYETS 4 20 Dec 17:36:36 17:40:44 33° 291° (WNW) 17:44:49
HO-68 20 Dec 17:37:58 17:40:58 13° 49° (NE) 17:43:58 435.675
MaSat-1 20 Dec 18:01:31 18:03:53 56° 245° (WSW) 18:06:23 437.345
Cubesat XI-IV 20 Dec 18:20:15 18:24:31 24° 266° (W) 18:28:47 437.490
PRISM 20 Dec 18:22:28 18:26:36 64° 286° (WNW) 18:30:40 437.425
CANX-2 20 Dec 18:29:21 18:30:59 12° 62° (ENE) 18:32:38 2200.000
